Lapse_Rate
6.3 6.4 6.4 6.5 6.2 6.5 6.4 6.4 6.0 6.2 6.1 5.9 5.8 5.7 5.8 5.9 5.8 6.0 6.2 6.3 6.1 6.1 6.1 6.1 6.1 6.0 5.9 5.8 5.7 5.6 5.6 5.6 5.6 5.6 5.7 5.7 5.7 5.7 5.8 5.8 5.9 5.9 5.9 6.0 6.1 6.1 6.1 6.0 6.1
6.4 6.5 6.5 6.4 6.8 7.0 6.8 6.2 6.1 6.2 6.0 5.8 5.6 5.8 5.9 5.7 6.0 6.0 6.2 6.3 6.1 6.0 6.0 6.0 6.2 6.1 6.0 5.9 5.7 5.6 5.7 5.6 5.5 5.7 5.7 5.7 5.6 5.6 5.7 5.9 6.0 5.9 5.8 5.8 6.0 6.1 6.0 5.9 6.0
6.9 6.8 6.7 6.4 6.9 7.0 7.0 6.4 6.3 6.2 6.1 5.8 5.8 5.7 5.7 6.0 6.1 6.2 6.3 6.3 6.2 6.0 5.9 6.0 6.0 6.0 6.0 6.0 6.0 5.8 5.8 5.6 5.6 5.6 5.6 5.8 5.8 5.7 5.6 5.7 5.7 5.7 5.7 5.7 5.8 5.8 5.8 5.7 5.7
6.9 7.0 6.8 7.2 7.1 6.7 6.9 6.5 6.0 5.9 5.9 6.1 5.7 5.7 6.1 6.4 6.3 6.2 6.3 6.3 6.1 6.1 6.0 5.9 6.0 6.1 6.0 6.1 6.1 6.0 5.9 5.6 5.5 5.5 5.6 5.8 5.6 5.4 5.3 5.4 5.4 5.5 5.4 5.6 5.7 5.6 5.5 5.5 5.4
6.9 6.9 7.4 7.4 7.1 7.0 6.9 6.7 6.3 6.1 5.9 5.8 5.8 5.6 6.0 6.4 6.3 6.2 6.2 6.2 6.0 6.0 5.9 6.0 6.0 6.0 6.1 6.1 6.1 6.0 5.9 5.7 5.5 5.6 5.6 5.6 5.4 5.3 5.2 5.4 5.4 5.4 5.2 5.3 5.5 5.5 5.5 5.6 5.4
6.9 7.1 7.7 7.5 7.1 6.9 6.8 6.5 6.2 6.2 6.3 6.2 6.1 5.6 5.9 6.1 6.2 6.0 6.0 6.1 5.9 5.8 5.7 5.9 6.0 6.0 6.0 6.0 6.0 5.8 5.8 5.7 5.5 5.5 5.4 5.4 5.3 5.3 5.2 5.4 5.3 5.3 5.1 5.0 5.3 5.5 5.5 5.4 5.4
7.5 7.3 7.5 7.3 7.0 7.1 6.8 6.7 6.5 6.2 6.2 6.0 6.2 5.8 5.8 5.8 6.2 6.1 5.9 6.0 6.1 5.8 5.7 5.7 6.0 5.9 6.0 5.9 5.8 5.7 5.6 5.5 5.4 5.3 5.3 5.2 5.0 5.1 5.1 5.1 5.2 5.2 5.1 5.0 5.2 5.3 5.4 5.5 5.5
7.6 7.4 7.8 7.2 7.1 7.2 6.9 6.6 6.7 6.5 6.3 6.5 6.4 6.1 6.1 5.9 6.0 6.1 6.1 5.9 6.0 6.0 5.9 5.6 6.0 6.0 6.0 5.9 5.8 5.6 5.5 5.3 5.3 5.3 5.2 5.2 5.0 5.0 4.8 5.0 5.0 4.9 5.0 4.8 5.0 5.1 5.3 5.4 5.4
7.9 8.1 8.0 7.5 7.4 7.2 6.8 6.5 7.0 6.9 7.0 6.9 6.7 6.4 6.3 6.3 6.2 6.1 6.1 6.0 6.1 6.1 6.0 5.8 5.8 5.9 5.9 5.9 5.7 5.7 5.6 5.4 5.4 5.4 5.2 5.3 5.1 4.9 4.9 5.0 5.1 4.9 5.0 5.0 5.1 5.3 5.3 5.3 5.3
7.5 8.0 7.9 7.3 7.5 7.4 7.0 6.8 7.1 6.8 7.2 7.2 7.1 6.9 6.6 6.3 6.1 6.1 6.0 6.2 6.0 6.0 6.0 6.0 5.9 5.9 5.9 5.8 5.7 5.7 5.6 5.6 5.5 5.7 5.4 5.4 5.3 5.1 5.0 5.1 4.9 5.0 5.1 5.1 5.1 5.1 5.2 5.3 5.2
8.1 7.9 7.8 7.5 7.3 7.2 7.3 7.1 7.3 7.1 6.8 6.9 6.8 7.1 6.9 6.4 5.9 5.7 5.7 5.9 6.0 5.8 5.9 5.9 5.9 5.9 5.9 5.8 5.7 5.8 5.7 5.7 5.7 5.7 5.6 5.4 5.3 5.3 5.3 5.1 5.1 5.1 5.1 5.2 5.1 5.2 5.3 5.4 5.3
8.2 7.8 7.9 7.7 7.6 7.5 7.4 7.5 7.4 7.3 7.3 7.5 7.3 7.3 7.1 6.9 6.4 5.8 5.7 5.6 5.8 5.9 5.7 5.8 5.9 5.9 5.9 5.9 5.8 5.8 5.7 5.6 5.4 5.5 5.4 5.5 5.5 5.5 5.5 5.2 5.1 5.1 5.0 5.3 5.3 5.2 5.2 5.3 5.4
8.2 8.2 8.1 8.0 7.9 7.9 8.0 7.9 7.9 7.9 8.3 8.2 7.8 7.4 7.2 6.9 6.5 6.2 5.9 5.8 5.7 5.8 5.9 5.9 5.9 6.0 6.0 5.9 5.8 5.7 5.4 5.3 5.4 5.4 5.5 5.4 5.5 5.5 5.3 5.3 5.3 5.4 5.2 5.3 5.3 5.4 5.3 5.3 5.4
8.1 8.1 8.1 8.1 7.9 7.9 8.1 8.1 8.5 8.5 8.6 8.4 8.0 7.6 7.4 6.9 6.9 6.3 6.3 6.0 5.9 5.8 5.9 5.9 5.8 5.9 5.9 5.8 5.8 5.6 5.5 5.3 5.2 5.2 5.4 5.4 5.4 5.6 5.6 5.3 5.3 5.5 5.3 5.3 5.4 5.4 5.4 5.3 5.4
8.0 8.2 8.4 8.4 8.1 8.0 8.3 8.5 8.7 8.7 8.6 8.4 8.2 7.7 7.4 7.1 7.2 6.9 6.4 6.2 6.1 5.9 5.8 5.8 5.8 6.0 5.9 5.8 5.8 5.7 5.5 5.3 5.2 5.3 5.3 5.5 5.4 5.6 5.7 5.5 5.5 5.4 5.1 5.1 5.2 5.3 5.3 5.3 5.3
8.1 8.3 8.5 8.7 8.4 8.4 8.4 9.2 8.8 8.7 8.4 8.2 8.4 8.0 7.3 7.2 7.1 6.9 6.6 6.5 6.3 6.1 6.1 5.9 6.0 5.8 5.9 5.9 5.8 5.7 5.6 5.3 5.4 5.4 5.3 5.6 5.7 5.6 5.8 5.9 5.5 5.4 5.2 5.2 5.2 5.3 5.4 5.4 5.3
8.3 9.1 8.6 8.9 8.8 8.7 8.8 9.1 8.7 8.5 8.3 8.3 8.2 8.0 7.5 7.3 7.4 7.0 6.8 6.5 6.3 6.2 6.1 6.1 6.1 5.9 5.9 6.0 5.8 5.5 5.6 5.6 5.5 5.6 5.4 5.5 5.6 5.8 5.7 5.7 5.5 5.4 5.3 5.3 5.2 5.4 5.5 5.4 5.5
8.8 9.3 8.9 8.9 8.8 8.7 8.9 9.1 8.4 8.7 8.5 8.4 8.3 7.9 7.6 7.5 7.3 7.2 6.7 6.5 6.4 6.3 6.4 6.4 6.3 6.1 5.8 5.9 6.1 5.8 5.7 5.7 5.8 5.6 5.6 5.8 5.6 5.8 5.9 5.6 5.4 5.5 5.4 5.3 5.4 5.5 5.5 5.5 5.3
8.4 8.8 9.1 8.9 8.9 9.0 9.2 8.8 8.3 8.6 8.4 8.4 8.2 7.5 7.2 7.6 7.8 7.5 7.2 6.7 6.7 6.7 6.5 6.4 6.3 6.7 6.0 5.9 5.9 5.8 5.6 5.5 5.6 5.6 5.3 5.7 5.9 5.7 5.9 5.8 5.3 5.4 5.4 5.4 5.6 5.4 5.5 5.3 5.3
8.7 8.9 9.6 9.1 9.1 9.1 9.3 8.5 8.7 8.4 8.2 8.2 8.1 8.1 8.2 8.1 8.2 8.0 7.7 7.3 7.3 7.1 6.9 6.8 6.4 6.2 6.2 6.0 5.8 5.7 5.6 5.6 5.7 5.7 5.5 5.5 5.7 5.6 5.6 5.9 5.7 5.4 5.5 5.5 5.5 5.3 5.2 5.5 5.4
9.4 9.6 9.7 9.4 9.1 9.3 9.0 9.0 8.7 8.6 8.3 8.1 8.0 8.0 7.9 8.2 8.2 8.0 7.7 7.5 7.2 7.2 7.0 6.9 6.6 6.5 6.3 6.2 6.0 5.9 5.8 5.8 5.9 5.7 5.6 5.4 5.6 5.5 5.6 5.7 5.5 5.5 5.6 5.5 5.6 5.6 5.3 5.5 5.5
9.6 9.3 9.2 9.2 9.4 9.7 9.0 9.6 8.7 8.5 8.2 8.0 7.7 7.6 7.6 7.9 8.2 8.1 8.0 7.7 7.4 7.2 7.1 7.0 6.7 6.6 6.5 6.2 5.9 5.9 5.8 6.0 5.8 5.7 5.5 5.7 5.4 5.6 5.5 5.7 5.7 5.6 5.7 5.6 5.7 5.8 5.5 5.6 5.6
9.6 9.0 9.2 9.3 9.5 9.5 9.0 9.3 8.7 8.6 8.2 7.9 7.8 7.7 7.7 7.7 8.1 8.1 7.9 7.7 7.4 7.3 7.1 6.9 7.0 6.8 6.5 6.1 5.9 5.8 5.7 5.8 5.7 5.7 5.8 5.7 5.6 5.6 5.7 6.0 6.1 5.7 5.6 5.7 5.4 5.6 5.8 5.7 5.6
8.7 8.8 9.1 9.5 9.6 9.7 9.1 9.1 9.3 9.0 8.3 8.1 7.8 7.8 7.7 7.7 7.8 7.9 7.7 7.8 7.7 7.4 7.1 7.0 7.0 6.8 6.6 6.2 5.9 5.8 5.7 5.7 5.6 5.8 5.8 5.7 5.9 5.7 6.0 6.0 6.1 5.9 5.7 5.7 5.6 5.6 5.6 5.9 5.6
8.8 9.5 9.7 9.8 9.9 10.0 9.2 9.2 9.4 8.6 8.7 8.6 8.2 7.8 7.7 7.8 7.9 7.9 7.8 7.7 7.5 7.6 7.2 7.1 7.1 7.0 6.8 6.2 5.8 5.5 5.5 5.6 5.6 5.7 5.8 5.7 5.9 6.0 5.8 5.8 6.0 6.0 5.9 5.7 5.8 5.8 5.6 5.9 5.7
9.3 9.6 9.8 9.5 9.8 10.1 9.2 9.6 9.3 8.9 8.9 8.7 8.2 7.7 7.6 7.7 8.0 7.9 7.7 7.6 7.4 7.3 7.1 7.1 7.2 6.9 6.4 5.9 5.3 5.0 4.9 5.1 5.4 5.3 5.7 5.7 5.8 5.9 5.9 5.9 6.0 5.8 5.8 5.9 6.1 5.9 5.6 5.8 5.7
9.2 9.1 9.6 9.7 9.5 9.7 9.7 9.6 8.5 8.8 8.8 8.6 8.2 7.7 7.7 7.7 7.7 7.6 7.5 7.4 7.4 7.3 7.1 7.0 6.9 6.7 6.2 5.9 4.7 4.7 4.8 5.1 5.5 5.5 5.9 5.9 6.0 5.8 6.1 6.1 6.1 6.2 6.1 6.0 5.9 5.8 5.8 5.7 5.8
9.3 9.4 9.5 9.6 9.8 9.6 9.8 9.3 9.6 8.3 8.7 8.5 8.0 7.7 7.5 7.6 7.7 7.4 7.4 7.4 7.4 7.2 7.1 6.9 6.9 6.6 6.0 5.6 5.3 4.9 4.8 5.1 5.3 5.7 6.1 6.2 6.1 5.8 6.1 6.0 6.3 6.2 6.3 6.2 5.9 5.9 5.8 5.7 5.8
9.4 9.5 9.5 9.5 9.6 9.8 9.8 9.7 8.8 8.4 8.3 7.7 7.8 7.4 7.5 7.5 7.5 7.5 7.3 7.4 7.4 7.3 7.1 6.9 6.8 6.5 6.0 5.7 5.6 5.4 4.9 5.1 5.6 6.1 6.2 6.2 5.9 5.6 5.8 6.1 5.9 5.9 5.9 5.9 6.1 6.1 5.8 5.9 5.9
9.3 9.4 9.4 9.6 9.4 9.6 9.3 9.5 9.0 8.5 8.4 8.2 7.6 7.4 7.3 7.3 7.3 7.3 7.3 7.3 7.5 7.4 7.3 6.9 6.5 6.4 6.3 6.2 5.9 5.8 6.0 5.9 6.4 6.4 6.3 6.2 6.1 5.9 5.7 5.8 5.8 5.8 5.8 5.7 5.9 6.1 5.9 5.8 5.9
Wind_Speed
13 9 3 4 4 3 6 6 4 5 3 2 9 1 5 6 5 4 13 14 22 20 24 21 17 16 17 17 18 18 18 17 14 13 11 11 11 11 11 12 12 11 12 12 12 13 14 13 15
6 3 4 3 2 6 6 2 4 6 7 4 9 4 1 6 6 10 15 17 22 21 24 23 18 17 17 17 17 18 18 16 14 13 12 11 10 10 10 10 10 9 10 11 10 11 13 13 13
6 4 4 2 3 9 9 4 5 7 3 1 4 4 4 4 4 14 14 21 22 20 23 22 18 17 17 16 16 17 17 17 15 14 12 11 10 9 9 9 9 8 8 8 9 10 10 12 12
4 4 4 3 9 9 7 5 4 6 5 2 2 6 6 4 9 7 21 22 19 19 21 23 19 18 18 17 16 16 17 16 14 13 12 10 9 8 7 7 7 8 8 7 5 7 8 9 9
5 3 2 7 8 6 4 5 2 3 3 1 2 5 5 5 8 17 20 19 18 17 18 22 18 18 18 18 17 16 15 15 14 13 12 11 9 8 7 6 7 7 7 7 6 8 9 7 6
4 3 4 8 8 4 2 2 1 2 3 5 3 6 7 7 14 17 19 18 17 15 18 22 18 17 17 17 17 16 15 14 13 13 11 10 9 9 9 9 9 9 8 7 7 9 9 6 7
4 5 7 5 6 4 1 2 2 2 1 3 6 5 7 11 15 16 17 17 16 16 16 18 20 18 17 16 16 16 16 14 13 12 11 10 9 9 9 9 10 10 10 10 9 9 9 8 9
3 4 6 4 5 5 3 3 3 2 3 4 4 4 9 12 16 15 17 16 15 14 14 15 17 18 17 17 16 16 14 14 13 12 11 11 12 11 10 9 10 9 9 9 10 10 9 9 10
2 2 7 8 4 5 2 3 1 0 4 4 5 2 10 20 18 17 15 15 14 13 14 16 16 17 16 16 17 16 15 14 13 13 14 12 14 15 9 6 6 6 7 6 8 8 7 7 9
3 3 6 5 4 5 2 5 3 4 2 4 6 8 18 20 19 19 18 16 17 16 15 14 15 16 16 14 14 15 14 15 14 13 14 13 9 4 4 6 10 3 6 7 5 6 7 9 13
2 3 7 6 6 6 3 3 4 2 2 3 7 13 18 20 19 19 17 16 16 15 12 12 13 14 15 11 12 13 14 13 14 11 12 11 6 12 9 8 7 7 8 10 12 13 12 12 9
4 3 5 7 6 6 6 5 3 6 2 2 4 15 19 20 19 19 17 17 17 16 15 14 12 11 13 12 11 11 11 12 10 13 11 7 10 7 9 6 9 8 6 6 10 5 5 6 8
7 6 7 9 9 7 6 8 6 4 3 3 10 15 18 18 18 16 16 15 16 16 16 15 13 12 11 9 10 7 10 10 10 10 11 11 9 5 6 7 6 6 7 5 6 8 9 8 7
7 10 10 9 9 5 8 5 3 4 3 7 12 15 15 18 18 15 15 15 16 16 16 15 15 13 15 9 9 9 12 9 9 9 9 11 10 7 6 6 9 7 2 5 4 7 7 7 8
5 10 8 3 6 5 5 10 7 3 4 8 10 12 14 16 17 17 16 15 15 14 15 15 14 15 13 13 12 12 10 11 10 10 9 10 10 9 8 7 3 7 6 7 7 9 9 7 8
6 6 5 3 6 3 7 8 4 1 3 5 8 9 11 14 15 15 14 14 14 13 14 14 12 14 15 12 10 10 11 11 10 10 10 12 12 11 9 6 4 6 6 7 7 6 5 6 6
5 3 5 1 4 4 4 10 9 3 3 4 7 8 9 10 13 14 14 13 14 14 13 14 13 14 13 12 11 11 10 10 11 11 11 11 13 13 12 6 7 6 5 4 4 4 6 5 5
4 6 5 5 7 7 7 11 4 3 3 3 3 3 6 8 10 12 14 12 14 12 13 13 13 12 12 9 9 9 9 9 12 11 12 11 12 13 13 11 8 7 5 4 4 4 3 4 4
8 9 8 3 5 7 6 11 4 2 2 3 3 3 4 5 8 11 13 14 16 15 15 15 14 14 12 11 10 10 10 9 8 11 13 13 14 12 12 8 8 8 5 4 5 6 5 5 5
10 10 8 2 1 6 8 11 3 2 1 2 5 5 4 4 6 9 13 15 16 16 15 15 16 14 13 10 10 10 9 9 8 10 13 14 15 13 12 9 7 6 5 5 6 6 4 3 4
12 9 7 5 3 5 8 11 3 4 3 2 0 3 4 4 3 6 9 13 15 16 16 15 15 15 14 15 9 8 8 7 7 8 8 11 15 13 14 13 10 7 7 5 6 6 5 4 4
14 3 5 5 7 6 3 3 5 2 2 3 1 5 6 7 5 4 6 10 12 13 14 14 15 15 15 15 13 14 12 10 8 5 9 5 9 13 12 14 12 8 8 6 6 7 5 6 5
4 2 5 5 11 6 6 7 8 0 1 4 5 4 6 6 7 6 5 5 8 10 8 10 12 12 13 13 12 10 12 8 9 7 10 8 8 12 13 14 10 10 8 7 8 6 6 4 5
3 8 9 8 11 11 7 5 11 5 6 4 4 3 5 7 7 7 5 4 6 5 6 7 9 10 12 14 15 12 8 11 9 7 6 8 6 7 10 12 10 9 9 11 7 8 8 7 6
10 13 9 8 8 1 5 6 9 6 5 4 2 3 3 7 7 5 5 5 6 7 6 6 7 8 9 9 8 9 10 13 9 7 8 8 6 8 9 8 9 8 9 9 8 8 8 7 8
16 14 8 5 5 3 6 4 5 5 5 4 2 2 2 6 6 5 5 5 6 6 5 4 4 3 7 12 14 12 10 6 6 5 7 8 7 7 9 10 11 9 8 10 10 6 8 9 8
8 10 6 6 4 8 4 2 9 6 6 5 7 4 4 6 6 6 5 5 6 5 5 4 5 4 6 7 1 8 6 3 4 9 10 7 7 7 11 10 10 12 11 11 9 8 10 9 8
8 5 9 7 3 6 5 3 3 5 7 8 6 4 5 5 6 7 7 6 6 6 6 5 4 3 1 4 4 4 4 0 6 9 9 8 8 9 11 10 10 10 11 10 10 10 12 11 9
6 10 5 7 5 7 5 6 10 5 6 8 5 3 7 7 7 7 7 6 6 5 5 3 4 4 4 6 6 7 6 0 8 9 10 7 8 9 10 8 9 10 10 11 11 13 11 12 11
6 4 9 6 5 3 8 5 7 7 7 7 5 6 8 8 9 8 8 6 5 4 4 3 3 4 6 8 7 7 6 7 11 15 12 8 9 10 10 9 10 11 10 10 12 13 13 13 13
Wind_Direction
159 167 185 231 229 100 69 69 39 90 101 23 139 163 25 26 359 53 135 151 150 154 154 160 150 143 142 145 147 145 149 150 149 145 140 132 127 120 119 120 119 119 116 109 110 111 112 112 107
153 159 215 275 59 74 88 39 35 41 46 129 129 162 138 82 59 123 142 150 154 153 155 158 153 147 145 146 147 147 150 149 150 148 145 141 133 123 120 118 116 118 114 116 116 113 123 124 125
181 268 282 326 32 59 68 73 69 78 102 154 113 20 25 60 74 147 137 153 157 154 161 146 155 152 150 150 152 153 155 156 158 154 153 151 142 138 133 123 120 116 113 117 124 133 132 124 132
210 197 220 58 64 80 46 91 80 125 121 54 43 79 105 18 150 151 144 153 157 158 165 140 158 160 161 158 157 158 159 161 162 160 161 161 155 158 149 144 148 142 139 131 131 116 112 119 135
239 250 171 82 80 75 70 69 102 128 78 75 230 102 77 79 120 140 151 158 155 160 162 157 165 163 170 170 168 168 168 170 174 174 174 174 169 177 174 178 176 169 165 163 166 159 149 142 145
240 269 36 53 78 70 48 119 197 345 41 126 111 118 80 118 142 150 156 163 159 159 162 159 169 170 171 179 179 178 180 182 186 189 189 191 191 201 204 199 199 193 193 199 202 201 213 227 234
299 301 56 59 68 94 75 185 245 22 105 107 137 115 109 148 146 156 163 164 163 169 164 164 174 179 176 183 184 188 189 192 196 201 202 203 210 212 213 210 207 215 214 219 224 225 217 223 225
293 281 69 58 61 67 89 164 34 265 120 111 179 145 165 158 157 160 165 166 167 174 167 176 177 180 185 182 189 194 195 198 202 207 211 215 217 224 223 228 228 237 239 228 225 229 226 221 220
236 269 70 61 50 55 92 221 76 308 157 197 155 55 118 150 159 161 168 170 171 180 179 182 181 184 191 186 182 197 203 207 212 216 224 224 235 195 188 228 270 242 262 254 225 218 217 209 210
287 333 36 356 23 32 101 231 134 216 166 169 137 103 129 152 163 167 174 175 181 183 189 185 185 185 189 191 179 201 199 206 213 208 227 235 242 278 234 183 228 232 280 259 239 215 223 220 217
38 346 334 355 336 322 347 222 188 262 228 303 186 155 155 161 171 177 181 181 186 184 193 202 184 185 195 199 189 194 205 210 208 218 224 231 224 228 185 214 227 246 245 255 212 200 217 215 239
276 297 324 322 342 297 291 318 253 237 356 37 164 162 168 173 178 183 184 182 185 188 193 199 191 188 207 194 202 212 207 207 228 186 222 208 232 175 271 217 211 213 225 237 244 224 217 230 234
251 333 300 307 309 278 276 267 298 288 209 190 145 164 177 182 184 188 186 182 187 189 194 193 201 196 199 224 202 212 251 200 223 190 214 241 240 225 164 295 242 260 183 212 234 231 220 216 227
332 308 296 302 306 291 273 293 274 124 145 175 167 173 183 188 185 184 189 187 190 192 193 196 198 197 202 206 215 214 225 235 229 233 214 217 242 225 191 215 237 235 233 174 218 223 223 239 222
305 302 283 285 340 298 270 252 242 360 187 169 175 179 184 189 189 191 192 194 191 195 191 198 199 198 202 207 204 221 229 223 230 228 215 222 222 222 242 217 178 232 166 210 194 227 222 229 221
295 268 305 83 336 51 253 288 103 114 210 199 180 180 191 195 196 197 197 202 196 204 197 201 200 204 198 206 209 221 224 238 227 231 224 214 226 235 228 239 217 178 217 214 187 228 223 228 248
220 322 321 70 49 337 258 307 83 28 236 240 176 184 196 201 207 203 205 207 206 203 200 197 202 214 205 202 210 219 227 230 240 233 234 211 227 229 239 243 249 227 236 219 219 191 205 203 228
346 312 322 328 2 316 296 277 93 25 270 211 185 203 204 220 221 213 216 195 219 201 213 207 205 211 207 204 207 216 226 231 232 246 238 235 238 231 234 245 238 235 228 204 208 242 194 251 207
303 289 291 334 17 305 311 306 27 31 215 245 272 261 275 249 213 224 210 213 213 211 207 210 204 195 207 206 205 209 218 222 217 235 241 242 236 237 229 236 228 232 235 223 196 209 214 234 219
260 279 268 296 318 289 307 298 318 265 134 322 334 316 315 292 250 234 227 212 216 211 217 212 218 209 208 210 216 219 218 225 212 228 247 244 251 237 233 216 228 219 239 217 228 228 231 229 230
242 268 308 314 330 240 302 256 235 176 214 182 289 13 17 6 316 257 222 223 216 213 211 218 217 217 213 222 213 211 226 231 222 239 234 236 234 243 237 233 235 207 242 193 224 230 218 223 235
264 147 292 288 280 333 343 346 89 107 234 213 214 25 354 17 15 302 224 209 213 212 214 215 218 215 213 208 216 212 223 216 230 215 242 258 252 243 244 243 227 225 238 224 224 225 244 211 245
322 335 287 286 266 273 171 266 96 118 118 179 69 49 39 27 49 5 286 208 203 196 206 207 217 217 225 210 228 223 225 246 229 223 245 229 259 257 250 247 234 225 234 219 234 243 218 237 234
319 249 236 244 263 246 91 298 104 62 43 142 96 56 53 34 12 56 37 151 194 197 205 202 207 213 212 210 208 206 208 251 242 217 246 238 241 256 245 245 244 232 232 237 224 230 231 244 258
235 244 239 218 209 60 95 256 56 71 86 78 7 46 21 14 25 32 64 124 154 180 178 185 194 212 206 213 209 215 198 229 249 230 246 273 240 246 259 242 245 240 241 244 229 223 244 239 245
209 253 266 224 230 135 138 264 79 64 96 96 39 38 33 18 21 33 69 133 147 155 158 166 163 180 223 222 225 206 195 214 236 257 258 254 243 259 272 263 238 225 232 233 229 221 236 233 240
152 221 315 286 207 256 73 144 130 106 142 130 94 93 47 13 31 59 94 123 132 150 146 154 158 190 235 257 7 219 166 223 316 307 282 250 253 253 245 251 239 234 228 230 222 225 231 244 230
281 109 203 213 263 274 106 270 20 127 143 140 128 106 84 79 62 69 81 108 121 131 127 133 149 179 266 128 153 91 160 62 330 300 260 251 251 243 253 248 240 237 233 230 225 228 224 229 231
177 214 236 308 314 314 279 75 79 109 145 153 119 108 95 92 81 77 82 92 113 121 125 153 180 176 177 164 166 180 146 346 266 266 264 252 253 247 253 248 242 236 236 233 228 228 235 229 235
289 351 266 267 175 230 302 301 72 115 131 139 115 101 83 83 91 85 88 90 106 116 138 172 164 189 192 177 194 200 181 212 242 249 245 250 255 253 253 252 237 239 240 239 235 230 233 225 235